SCP
0 0 0 0 0 0 0 0 1 1 1 1 2 3 5 5 5 5 5 5 8 10 9 7 8 9 10 11 9 8 9 10 11 9 8 8 7 7 6 6 6 5 5 5
0 0 0 0 0 0 0 0 1 1 1 1 1 2 3 5 5 5 5 5 6 8 8 8 8 9 10 10 9 8 8 9 9 9 8 8 7 6 6 5 6 6 5 5
0 0 0 0 0 0 0 0 1 1 1 1 1 1 2 4 5 5 5 5 5 6 8 8 7 8 8 9 8 8 8 8 8 7 7 7 7 6 5 4 5 6 5 4
0 0 0 0 0 0 0 0 1 1 0 1 1 1 1 3 4 5 5 5 5 6 8 9 8 7 8 8 8 8 8 7 6 6 6 6 6 5 4 4 5 5 4 3
0 0 0 0 0 0 0 0 0 0 0 0 0 1 1 2 3 4 6 8 7 7 9 9 8 8 8 8 7 7 7 7 6 5 5 5 4 4 4 4 4 4 2 2
0 0 0 0 0 0 0 0 0 0 0 0 0 0 1 2 3 5 7 10 9 8 10 10 9 9 8 7 6 6 7 7 6 5 5 4 4 4 4 3 3 2 1 1
0 0 0 0 0 0 0 0 0 0 0 0 0 1 2 4 5 6 8 9 9 10 11 10 9 9 7 6 5 5 7 7 6 5 5 4 4 3 3 2 2 1 1 1
0 0 0 0 0 0 0 0 0 0 0 0 1 1 3 6 7 7 7 7 8 10 10 9 9 8 7 6 5 5 6 7 7 5 5 4 3 2 2 2 2 1 1 1
0 0 0 0 0 0 0 0 0 0 0 0 0 1 3 5 7 7 7 6 7 9 8 8 8 8 7 7 6 5 5 6 6 4 3 3 3 2 2 2 2 1 1 1
0 0 0 0 0 0 0 0 0 0 0 0 0 1 3 4 6 7 7 6 6 7 7 7 7 8 8 8 8 7 5 4 4 3 3 3 2 2 2 2 2 2 2 2
0 0 0 0 0 0 0 0 0 0 0 0 0 1 3 5 6 6 6 6 6 6 6 6 6 7 8 9 10 9 6 4 3 3 3 3 3 3 3 3 2 3 3 3
0 0 0 0 0 0 0 0 0 0 1 1 1 2 3 5 6 6 5 5 5 5 5 5 6 7 9 11 12 11 8 5 3 3 4 4 4 4 4 3 3 3 4 4
0 1 1 0 0 0 0 0 0 0 1 1 1 2 3 4 5 5 5 4 4 4 4 5 6 8 9 11 13 13 10 6 3 3 4 5 5 5 5 4 3 3 4 4
1 1 1 0 0 0 0 0 0 0 1 1 1 2 3 3 4 4 4 4 3 3 4 6 7 8 8 10 14 14 11 6 4 4 5 6 6 5 5 4 3 4 4 3
1 1 1 0 0 0 0 0 0 0 1 1 1 2 2 3 4 4 4 3 2 3 4 7 8 8 7 10 13 14 11 7 5 5 5 6 5 5 5 4 4 3 3 2
1 1 1 0 0 0 0 0 0 0 1 1 1 2 3 4 4 4 4 3 2 3 5 8 8 7 7 9 12 13 10 8 6 6 6 5 5 5 4 3 2 2 1 1
1 1 0 0 0 0 0 0 0 1 1 1 1 2 3 4 4 4 4 3 2 4 6 8 7 5 6 8 10 10 9 8 7 7 6 5 4 4 2 1 1 1 0 1
1 1 0 0 0 0 0 0 0 1 1 1 2 2 3 5 5 4 4 3 4 5 8 8 5 4 5 6 7 7 7 7 8 7 5 4 3 2 1 0 0 0 1 1
1 1 0 0 0 0 0 0 1 1 2 2 2 3 4 6 6 5 4 4 5 7 9 7 4 2 3 5 5 6 6 7 7 6 4 3 1 1 0 0 0 1 1 1
0 1 1 0 0 0 1 1 1 1 2 3 4 4 5 6 5 4 3 4 5 8 9 6 3 2 3 4 5 6 6 6 5 4 3 2 1 1 1 1 1 1 1 1
1 1 1 1 0 1 1 1 1 1 2 3 4 4 5 5 4 3 2 3 5 7 7 4 2 2 3 4 5 6 5 4 3 2 2 1 1 1 1 1 1 1 1 1
1 1 1 1 1 1 1 1 1 1 1 2 3 3 3 3 2 2 2 3 4 4 3 2 2 2 3 5 5 5 4 3 2 1 1 1 1 1 1 1 1 1 1 1
1 1 1 1 1 1 1 1 1 1 1 1 2 2 2 2 1 2 2 2 2 2 1 1 1 2 4 5 5 3 2 2 1 1 0 0 0 1 1 1 1 1 1 1
1 1 1 1 1 1 1 1 1 1 1 1 1 1 1 1 1 2 2 2 1 1 1 1 1 2 3 3 3 2 1 1 1 0 0 0 0 0 0 0 0 0 0 0
0 0 1 1 1 1 1 0 1 1 1 1 1 1 1 1 1 1 2 1 1 1 1 1 1 2 2 2 1 1 1 0 0 0 0 0 0 0 0 0 0 0 0 0
0 1 1 1 1 1 0 0 0 1 1 1 1 1 1 1 1 1 1 1 1 1 1 1 1 1 1 1 1 1 0 0 0 0 0 0 0 0 0 0 0 0 0 0
Wind_Speed
10 10 10 9 9 9 10 8 8 9 7 8 8 6 7 9 9 10 9 9 10 9 8 9 9 9 8 7 6 5 4 4 3 2 1 1 1 1 2 2 3 2 2 3
8 11 11 10 9 10 11 8 9 9 6 6 5 7 8 10 12 11 10 8 7 9 9 9 9 9 8 7 6 5 4 3 2 2 1 1 1 1 2 2 2 2 2 3
9 7 7 8 10 10 12 10 8 6 3 6 7 7 9 10 10 9 9 9 9 8 9 10 10 9 8 7 6 5 4 3 2 2 2 1 1 1 1 1 1 1 1 2
10 8 7 8 9 8 9 8 8 8 6 7 11 8 9 10 9 10 9 9 9 8 8 9 10 9 8 7 6 5 4 3 3 2 2 1 1 1 1 1 1 1 1 2
8 6 6 8 9 8 9 7 9 9 9 10 10 8 5 6 8 9 8 8 9 9 9 9 10 10 9 8 7 5 4 3 3 2 2 1 1 1 1 1 1 0 1 1
10 8 8 9 8 7 8 8 9 10 10 12 9 8 6 6 9 9 9 9 10 9 9 9 10 10 8 8 7 6 5 4 4 3 2 1 1 1 1 1 1 0 0 1
10 11 10 9 10 8 10 8 6 7 8 9 8 8 4 3 6 8 10 11 11 10 10 10 11 10 9 8 7 7 6 5 4 3 2 1 1 1 1 0 1 1 1 1
11 9 8 8 9 7 8 8 7 7 8 9 8 7 2 4 4 6 8 10 11 12 10 11 11 10 9 8 7 7 6 5 4 3 2 2 1 0 1 1 1 1 1 1
9 8 6 6 7 8 8 8 8 8 10 9 7 4 1 5 7 8 8 9 9 10 10 11 11 10 9 8 7 6 6 5 4 4 3 3 2 1 0 1 1 1 1 2
7 9 9 7 8 9 10 8 5 7 8 9 8 5 2 5 6 7 7 7 8 10 10 10 9 9 8 8 7 6 5 4 5 4 3 3 2 1 1 1 1 1 2 2
7 8 9 8 9 10 9 9 7 6 7 8 7 4 3 1 3 6 5 6 8 9 10 9 9 9 8 7 7 6 5 4 3 3 2 2 2 1 1 0 1 1 2 2
6 6 8 10 11 12 10 10 8 7 8 7 7 5 2 2 4 6 5 6 8 9 8 8 8 9 8 7 7 6 5 5 4 3 3 2 2 1 1 1 1 1 2 2
5 4 7 8 8 8 8 8 9 7 6 7 8 3 3 2 3 5 7 7 8 8 8 9 8 8 7 7 6 6 5 5 4 4 4 3 2 1 1 0 0 1 1 2
6 6 7 9 10 10 11 11 10 9 7 8 8 4 2 2 3 6 7 7 7 7 7 8 8 7 7 6 6 6 5 5 4 4 4 3 2 2 1 1 1 1 2 2
5 9 9 11 14 13 12 13 10 10 10 9 8 5 3 3 3 7 8 8 7 7 8 8 7 7 6 6 5 5 4 4 3 3 3 3 3 2 1 1 1 1 2 2
4 8 10 12 13 14 14 12 10 11 10 8 5 3 1 3 5 6 8 8 7 7 8 8 7 7 6 6 5 5 4 4 3 2 3 3 3 2 2 2 1 0 1 2
6 8 10 11 13 13 11 9 9 8 6 5 4 2 2 3 3 6 7 7 7 7 8 7 7 6 5 5 4 4 4 3 3 3 3 3 3 2 2 2 1 0 1 2
9 9 7 10 11 12 5 6 7 6 5 4 1 2 1 4 4 5 6 6 7 7 8 7 6 6 5 5 4 3 4 4 4 4 3 2 1 1 1 1 0 0 1 2
9 8 7 7 9 9 7 5 6 6 3 3 1 2 3 5 5 5 5 5 7 7 7 6 6 6 5 5 5 4 4 4 3 3 2 2 2 1 1 1 1 1 1 2
9 8 8 8 9 8 4 4 6 5 3 3 2 2 3 4 2 3 5 5 7 7 7 6 6 6 5 5 5 4 4 4 3 3 2 2 1 1 1 1 1 1 2 3
8 9 10 10 9 6 5 5 6 5 1 4 4 2 3 2 2 7 7 6 8 8 7 6 6 5 5 5 5 5 4 4 3 2 2 2 1 1 1 1 1 2 3 3
6 6 7 7 8 5 5 4 2 3 3 3 3 4 5 6 7 8 8 7 8 7 7 6 5 5 4 5 5 4 4 3 3 2 2 2 2 2 2 1 2 3 3 3
4 3 2 3 3 1 2 3 3 2 2 3 3 5 6 6 6 7 7 6 7 7 6 5 5 5 5 5 5 4 3 3 3 3 2 2 1 2 2 3 3 3 3 3
3 2 4 3 2 2 1 1 1 2 3 3 4 6 5 6 7 7 6 5 6 6 5 5 5 6 5 5 4 4 4 4 4 3 2 2 2 3 3 3 3 3 3 2
5 4 4 4 3 2 1 1 2 3 4 4 4 6 6 7 8 7 6 6 6 5 4 5 4 5 5 5 5 4 4 4 3 3 2 3 4 3 2 3 3 3 2 2
5 4 4 4 4 3 1 1 2 3 5 5 5 6 6 6 8 7 6 7 6 6 5 5 5 5 5 5 5 4 4 4 3 3 3 3 3 3 3 3 3 4 5 5
Wind_Direction
216 233 242 240 240 257 267 266 263 254 214 215 203 174 173 179 185 189 178 163 158 153 147 140 136 133 130 126 129 133 131 131 131 134 146 142 113 99 86 82 56 36 3 354
230 237 249 254 246 252 266 255 257 258 219 218 203 187 198 192 194 192 180 173 170 153 149 150 145 141 139 138 139 134 135 132 136 130 124 123 102 102 93 69 59 26 2 353
251 256 243 254 255 250 260 257 247 260 273 249 229 212 209 201 193 179 176 169 169 167 159 157 153 152 150 147 143 138 133 128 117 104 104 91 94 104 110 117 85 360 3 6
255 254 249 247 251 254 263 265 258 252 243 243 236 243 211 194 188 190 182 174 164 166 166 163 157 158 157 153 143 133 132 126 119 126 117 118 131 109 86 97 98 22 19 12
263 258 250 252 256 260 271 267 270 261 258 260 248 259 242 191 206 193 177 173 169 174 169 169 165 160 156 150 141 137 137 137 132 118 106 112 84 71 73 67 70 139 14 4
270 271 264 266 265 261 265 259 261 263 258 257 256 263 263 202 205 190 174 178 175 173 169 168 158 151 151 149 146 144 152 149 139 134 128 126 105 80 72 47 19 329 35 19
257 246 243 251 251 246 257 257 257 261 261 261 256 253 241 192 188 181 167 170 169 165 166 162 154 153 149 152 152 152 154 151 148 143 149 152 133 127 128 351 26 351 7 33
275 260 234 239 244 248 251 253 262 276 278 281 281 269 206 139 139 137 145 153 160 160 162 157 154 149 149 151 151 153 155 153 152 149 151 149 156 127 85 12 354 356 5 11
282 280 245 247 262 260 249 249 260 277 282 280 276 269 191 133 137 136 142 142 148 151 151 150 147 144 147 149 149 152 157 159 157 156 162 163 161 134 83 28 7 4 356 346
290 294 285 266 254 256 261 262 267 266 282 282 277 272 256 172 162 148 140 139 141 139 138 138 141 145 144 147 148 146 149 162 164 162 175 160 150 151 125 38 27 19 14 1
284 282 283 278 268 267 265 259 261 269 274 288 292 298 320 289 145 137 141 144 146 141 140 144 144 143 143 148 149 148 148 148 158 157 158 128 140 133 107 73 24 28 10 332
282 289 287 285 284 283 270 271 269 268 276 282 286 281 263 99 114 128 132 123 126 129 136 142 142 145 149 151 153 153 156 161 168 160 149 142 129 107 92 45 29 10 339 310
311 290 286 287 288 275 272 271 275 278 278 279 279 254 122 114 126 120 124 124 125 134 146 145 146 151 154 158 158 159 166 172 173 165 156 140 136 128 95 50 309 297 298 300
295 273 268 270 277 285 284 279 277 279 273 278 278 262 185 170 140 129 128 132 137 143 146 149 154 155 158 161 162 166 175 178 177 168 153 144 147 153 192 229 245 281 297 304
279 274 265 265 271 273 278 279 276 273 277 278 278 273 252 194 157 143 142 146 150 154 155 157 160 156 158 162 165 167 169 169 170 167 157 152 162 173 195 220 243 282 300 312
264 281 282 275 277 277 275 275 266 265 272 272 276 288 211 163 144 143 148 153 160 164 160 159 160 158 160 164 165 163 164 167 167 174 174 166 168 179 204 214 207 292 329 328
263 269 277 281 288 284 272 282 284 285 291 300 293 282 141 126 144 151 152 161 167 167 157 157 156 154 154 159 159 161 165 170 173 185 190 182 182 188 205 234 182 147 314 310
252 260 270 278 285 275 279 298 301 291 300 308 23 92 115 119 132 136 150 158 162 162 156 155 155 153 151 151 157 167 179 185 184 182 181 186 194 192 215 257 77 288 297 297
232 246 264 272 275 273 277 284 290 291 302 334 37 111 103 112 113 109 116 137 145 146 145 146 149 150 152 157 163 174 185 184 182 183 180 194 203 197 196 197 218 268 279 278
217 226 249 264 273 270 280 318 310 297 284 351 56 131 140 148 162 137 123 126 131 133 135 138 146 150 154 158 163 177 180 177 187 185 184 187 196 210 202 245 257 271 275 272
227 225 237 255 264 265 299 308 292 274 339 31 48 93 128 133 99 131 134 131 133 135 139 145 150 152 156 163 168 179 178 183 192 185 178 166 186 226 226 242 263 271 270 275
251 253 250 260 267 278 341 321 345 54 57 57 64 79 93 99 111 128 135 137 140 141 148 151 152 152 157 163 170 176 178 179 177 169 181 187 206 257 259 241 258 267 271 274
245 255 278 267 261 88 2 41 94 118 93 76 86 96 101 110 124 132 131 134 140 141 148 152 154 153 154 163 169 173 172 171 168 169 184 195 230 253 258 247 254 256 255 260
257 266 260 254 229 193 202 127 107 92 100 108 116 118 121 121 122 124 125 135 140 141 146 155 164 161 160 165 167 170 167 170 172 178 188 206 225 240 244 253 264 269 272 280
281 275 282 282 271 253 151 119 117 116 119 120 125 126 132 134 139 142 142 148 150 151 154 158 163 165 163 162 165 171 170 168 173 185 207 227 238 241 244 250 260 273 297 303
274 270 260 257 253 260 167 156 166 149 138 134 129 122 127 134 141 142 149 151 150 152 156 160 166 170 170 169 166 167 171 173 179 199 223 243 245 242 243 239 252 250 240 244